Showing default

SDS-4, 38339

Orbit data source: Space-Track

SDS-4, 38339 is a payload satellite owned by JAXA (JP) in SSO that was launched on Thu, 17 May 2012 UTC via an H-IIA 202 launch vehicle from the Tanegashima Space Center (TNSTA). Payload-class satellites include a variety of spacecraft equipped with specific instruments for various scientific and technological missions. These include communications satellites like Starlink; space stations such as the ISS; scientific satellites like the Hubble; Earth observation satellites from companies like Planet Labs, Umbra, and HawkEye 360; GPS; miniature CubeSats for education and research; and military/defense satellites.

Loading next visibility...
Identifier
38339, 2012-025C
Orbit
SSO
Country
Flag of JPJP / JPN
Related business
Manufacturer
JAXA
Mission
Operational Civil Technology
Bus & Motor
SDS-1, Unknown motor
Mass
50 kg wet, 50 kg dry
Launch date (UTC)
2012-05-17 (14 years ago)
Launch vehicle
H-IIA 202
Launch site
Tanegashima Space Center (TNSTA)
Object type
Payload
Rocket body
Debris
Shape & HBR
Box + 2 Pan, 0.8 m
Radar Cross Section
0.514 m², Medium (>0.1 m² and < 1m²)

Expand to show TLE details & history
Last TLE update: 3 hours ago

TLE from 3 hours ago
0 SDS-4
1 38339U 12025C   26170.21588205  .00000323  00000-0  54780-4 0  9999
2 38339  98.1377 266.1525 0005615 297.1008  62.9628 14.75822475756280
Epoch: 2026-06-19T05:10Z
TLE epoch observation values (Epoch: 2026-06-19T05:10:52.209Z)
Latitude
0.00002°
Longitude
-79.01309°
Altitude
643.76 km
Speed
7.537 km/s
True Right ascension
17h 44m 36s
True Declination
0° 00' 00"
Sunlit
Object was in full shadow at epoch
Visualization orbit readout
Latitude
Unknown
Longitude
Unknown
Altitude
Unknown
Speed
Unknown
Apparent Right ascension
Unknown
Apparent Declination
Unknown
Sunlit
N/A
Visualization observer readout
Local Sidereal Time
18:57:58
Azimuth
Unknown
Elevation
Unknown
Doppler factor
Unknown
Orbital elements
Apogee altitude
643.539 km
Perigee altitude
635.658 km
Semi-major axis
7,017.736 km
Eccentricity
0.00056
Inclination
98.1377°
RAAN
266.1525°
Arg. of periapsis
297.1008°
True anomaly
63.02013°
Mean anomaly
62.9628°
Eccentric anomaly
62.99146°
Mean motion
3.69188 °/min
Orbital period
97.51 mins
BSTAR
0.00005478
Loading maneuver chart data...
Computing Atmospheric mass density...
Loading historical data...
Loading historical data...
Loading historical data...
Loading historical data...
Loading historical data...
Loading historical data...
Loading historical data...

Documentation

Showing up to 5 results
|